| time (UTC) | temp F | wind direction | speed MPH | gust MPH | rain 1hr in | rain 24hr in | rain mn in | humidity % | barometer mb |
| 20260506205748 | 67 | 72 | 2.0 | 3.0 | 0.00 | 0.05 | 0.05 | 71 | 1013.4 |
| 20260506205243 | 66 | 34 | 1.0 | 1.0 | 0.00 | 0.05 | 0.05 | 72 | 1013.6 |
| 20260506204740 | 65 | 42 | 6.0 | 9.0 | 0.00 | 0.05 | 0.05 | 69 | 1013.6 |
| 20260506204238 | 65 | 52 | 2.0 | 3.0 | 0.00 | 0.05 | 0.05 | 70 | 1013.6 |
| 20260506203736 | 65 | 110 | 1.0 | 1.0 | 0.00 | 0.05 | 0.05 | 74 | 1013.4 |
| 20260506203233 | 65 | 0 | 6.0 | 7.0 | 0.00 | 0.05 | 0.05 | 71 | 1013.5 |
| 20260506202730 | 65 | 86 | 2.0 | 2.0 | 0.00 | 0.05 | 0.05 | 69 | 1013.6 |
| 20260506202226 | 65 | 340 | 1.0 | 2.0 | 0.00 | 0.05 | 0.05 | 73 | 1013.8 |
| 20260506201723 | 64 | 110 | 3.0 | 3.0 | 0.00 | 0.05 | 0.05 | 73 | 1013.8 |
| 20260506201220 | 64 | 69 | 2.0 | 3.0 | 0.00 | 0.05 | 0.05 | 72 | 1013.7 |
| 20260506200717 | 63 | 89 | 2.0 | 5.0 | 0.00 | 0.05 | 0.05 | 75 | 1014.1 |
| 20260506200214 | 63 | 140 | 4.0 | 5.0 | 0.00 | 0.05 | 0.05 | 73 | 1014.0 |
| 20260506195710 | 63 | 127 | 1.0 | 2.0 | 0.00 | 0.05 | 0.05 | 73 | 1014.0 |
| 20260506195207 | 63 | 77 | 2.0 | 2.0 | 0.00 | 0.05 | 0.05 | 71 | 1014.1 |
| 20260506194704 | 63 | 80 | 0.0 | 1.0 | 0.00 | 0.05 | 0.05 | 72 | 1014.3 |
| 20260506194200 | 63 | 94 | 1.0 | 1.0 | 0.00 | 0.05 | 0.05 | 70 | 1014.2 |
| 20260506193658 | 63 | 345 | 3.0 | 5.0 | 0.00 | 0.05 | 0.05 | 72 | 1014.1 |
| 20260506193155 | 62 | 38 | 1.0 | 1.0 | 0.00 | 0.05 | 0.05 | 72 | 1014.3 |
| 20260506192652 | 62 | 19 | 5.0 | 5.0 | 0.00 | 0.05 | 0.05 | 71 | 1014.4 |
| 20260506192148 | 62 | 110 | 1.0 | 2.0 | 0.00 | 0.05 | 0.05 | 73 | 1014.5 |
| 20260506191645 | 62 | 29 | 2.0 | 2.0 | 0.00 | 0.05 | 0.05 | 74 | 1014.5 |
| 20260506191141 | 62 | 53 | 2.0 | 3.0 | 0.00 | 0.05 | 0.05 | 74 | 1014.6 |
| 20260506190639 | 61 | 69 | 1.0 | 2.0 | 0.00 | 0.05 | 0.05 | 75 | 1014.6 |
| 20260506190135 | 61 | 77 | 2.0 | 2.0 | 0.00 | 0.05 | 0.05 | 75 | 1014.6 |
| 20260506185632 | 61 | 70 | 2.0 | 2.0 | 0.00 | 0.05 | 0.05 | 75 | 1014.7 |
| 20260506185128 | 60 | 2 | 2.0 | 2.0 | 0.00 | 0.05 | 0.05 | 74 | 1014.5 |
| 20260506184626 | 61 | 335 | 4.0 | 6.0 | 0.00 | 0.05 | 0.05 | 75 | 1014.1 |
| 20260506184123 | 60 | 346 | 4.0 | 5.0 | 0.00 | 0.05 | 0.05 | 76 | 1014.0 |
| 20260506183620 | 60 | 1 | 5.0 | 6.0 | 0.00 | 0.05 | 0.05 | 75 | 1014.3 |
| 20260506183115 | 59 | 353 | 5.0 | 6.0 | 0.00 | 0.05 | 0.05 | 76 | 1014.2 |
| 20260506182613 | 59 | 54 | 6.0 | 8.0 | 0.00 | 0.05 | 0.05 | 76 | 1014.6 |
| 20260506182110 | 59 | 28 | 5.0 | 6.0 | 0.00 | 0.05 | 0.05 | 77 | 1014.4 |
| 20260506181608 | 59 | 344 | 5.0 | 7.0 | 0.00 | 0.05 | 0.05 | 77 | 1014.4 |
| 20260506181105 | 59 | 344 | 5.0 | 6.0 | 0.00 | 0.05 | 0.05 | 78 | 1014.5 |
| 20260506180601 | 58 | 332 | 5.0 | 7.0 | 0.00 | 0.05 | 0.05 | 78 | 1014.3 |
| 20260506180058 | 58 | 21 | 6.0 | 7.0 | 0.00 | 0.05 | 0.05 | 77 | 1014.1 |
| 20260506175554 | 58 | 32 | 3.0 | 3.0 | 0.00 | 0.05 | 0.05 | 81 | 1014.4 |
| 20260506175051 | 57 | 355 | 5.0 | 6.0 | 0.00 | 0.05 | 0.05 | 80 | 1014.5 |
| 20260506174550 | 57 | 341 | 7.0 | 9.0 | 0.00 | 0.05 | 0.05 | 80 | 1014.4 |
| 20260506174045 | 56 | 6 | 5.0 | 7.0 | 0.00 | 0.05 | 0.05 | 81 | 1014.6 |
| 20260506173543 | 56 | 142 | 3.0 | 5.0 | 0.00 | 0.05 | 0.05 | 82 | 1014.9 |
| 20260506173040 | 55 | 347 | 7.0 | 9.0 | 0.00 | 0.05 | 0.05 | 81 | 1015.1 |
| 20260506172537 | 55 | 42 | 6.0 | 8.0 | 0.00 | 0.05 | 0.05 | 82 | 1014.9 |
| 20260506172028 | 55 | 30 | 5.0 | 7.0 | 0.00 | 0.05 | 0.05 | 83 | 1014.3 |
| 20260506171525 | 54 | 351 | 7.0 | 10.0 | 0.00 | 0.05 | 0.05 | 83 | 1014.4 |
| 20260506171022 | 54 | 336 | 7.0 | 9.0 | 0.00 | 0.05 | 0.05 | 84 | 1014.5 |
| 20260506170520 | 53 | 323 | 5.0 | 7.0 | 0.00 | 0.05 | 0.05 | 84 | 1014.7 |
| 20260506170017 | 53 | 344 | 9.0 | 10.0 | 0.00 | 0.05 | 0.05 | 85 | 1014.3 |
| 20260506165516 | 53 | 1 | 8.0 | 9.0 | 0.00 | 0.05 | 0.05 | 86 | 1014.1 |
| 20260506165011 | 52 | 350 | 8.0 | 9.0 | 0.00 | 0.05 | 0.05 | 87 | 1014.0 |
| 20260506164508 | 52 | 27 | 5.0 | 7.0 | 0.00 | 0.05 | 0.05 | 88 | 1014.5 |
| 20260506164006 | 52 | 326 | 6.0 | 7.0 | 0.00 | 0.05 | 0.05 | 89 | 1014.8 |
| 20260506163501 | 51 | 46 | 2.0 | 3.0 | 0.00 | 0.05 | 0.05 | 89 | 1014.4 |
| 20260506162955 | 51 | 25 | 5.0 | 6.0 | 0.00 | 0.05 | 0.05 | 90 | 1014.3 |
| 20260506162454 | 51 | 5 | 3.0 | 5.0 | 0.00 | 0.05 | 0.05 | 91 | 1014.2 |
| 20260506161951 | 51 | 357 | 7.0 | 9.0 | 0.00 | 0.05 | 0.05 | 91 | 1014.3 |
| 20260506161449 | 51 | 351 | 5.0 | 8.0 | 0.00 | 0.05 | 0.05 | 92 | 1014.3 |
| 20260506160946 | 51 | 17 | 3.0 | 5.0 | 0.00 | 0.05 | 0.05 | 92 | 1014.5 |
| 20260506160443 | 51 | 35 | 4.0 | 6.0 | 0.00 | 0.05 | 0.05 | 93 | 1014.3 |
| 20260506155940 | 51 | 13 | 5.0 | 6.0 | 0.00 | 0.05 | 0.05 | 93 | 1014.6 |
| 20260506155438 | 51 | 24 | 3.0 | 3.0 | 0.00 | 0.05 | 0.05 | 93 | 1014.2 |
| 20260506153605 | 50 | 40 | 7.0 | 9.0 | 0.00 | 0.05 | 0.05 | 94 | 1013.6 |
| 20260506153102 | 50 | 36 | 5.0 | 7.0 | 0.00 | 0.05 | 0.05 | 94 | 1013.7 |
| 20260506152559 | 50 | 38 | 8.0 | 9.0 | 0.00 | 0.05 | 0.05 | 95 | 1014.1 |
| 20260506152057 | 50 | 342 | 5.0 | 7.0 | 0.00 | 0.05 | 0.05 | 95 | 1014.2 |
| 20260506151555 | 50 | 68 | 5.0 | 7.0 | 0.00 | 0.05 | 0.05 | 95 | 1014.4 |
| 20260506151052 | 50 | 11 | 5.0 | 7.0 | 0.00 | 0.05 | 0.05 | 95 | 1014.6 |
| 20260506150548 | 50 | 13 | 6.0 | 7.0 | 0.05 | 0.05 | 0.05 | 95 | 1013.6 |
| 20260506150045 | 50 | 8 | 10.0 | 11.0 | 0.05 | 0.05 | 0.05 | 95 | 1014.2 |
| 20260506145541 | 50 | 352 | 7.0 | 8.0 | 0.12 | 0.05 | 0.05 | 94 | 1014.7 |
| 20260506145039 | 49 | 5 | 5.0 | 6.0 | 0.12 | 0.04 | 0.04 | 94 | 1015.6 |
| 20260506144536 | 50 | 346 | 3.0 | 5.0 | 0.05 | 0.03 | 0.03 | 94 | 1016.1 |
| 20260506144033 | 49 | 325 | 2.0 | 2.0 | 0.07 | 0.02 | 0.02 | 94 | 1016.4 |
| 20260506143531 | 50 | 277 | 2.0 | 2.0 | 0.07 | 0.02 | 0.02 | 94 | 1016.8 |
| 20260506143029 | 49 | 330 | 1.0 | 1.0 | 0.05 | 0.01 | 0.01 | 94 | 1016.4 |
| 20260506142526 | 49 | 342 | 3.0 | 3.0 | 0.05 | 0.01 | 0.01 | 94 | 1015.4 |
| 20260506142024 | 49 | 347 | 4.0 | 7.0 | 0.00 | 0.00 | 0.00 | 94 | 1014.5 |
| 20260506141522 | 49 | 356 | 5.0 | 7.0 | 0.00 | 0.00 | 0.00 | 94 | 1014.1 |
| 20260506141020 | 49 | 20 | 7.0 | 9.0 | 0.00 | 0.00 | 0.00 | 94 | 1014.0 |
| 20260506140517 | 49 | 16 | 5.0 | 6.0 | 0.00 | 0.00 | 0.00 | 94 | 1014.4 |
| 20260506140014 | 49 | 15 | 6.0 | 7.0 | 0.00 | 0.00 | 0.00 | 93 | 1014.0 |
| 20260506135511 | 50 | 23 | 4.0 | 6.0 | 0.00 | 0.00 | 0.00 | 93 | 1013.6 |
| 20260506135007 | 50 | 335 | 5.0 | 6.0 | 0.00 | 0.00 | 0.00 | 92 | 1014.2 |
| 20260506134504 | 50 | 11 | 5.0 | 6.0 | 0.00 | 0.00 | 0.00 | 92 | 1014.6 |
| 20260506134000 | 50 | 18 | 3.0 | 7.0 | 0.00 | 0.00 | 0.00 | 92 | 1014.6 |
| 20260506133457 | 50 | 355 | 5.0 | 6.0 | 0.00 | 0.00 | 0.00 | 91 | 1015.0 |
| 20260506132954 | 50 | 355 | 5.0 | 7.0 | 0.00 | 0.00 | 0.00 | 92 | 1015.0 |
| 20260506132451 | 50 | 359 | 3.0 | 3.0 | 0.00 | 0.00 | 0.00 | 92 | 1015.1 |
| 20260506131948 | 49 | 354 | 5.0 | 7.0 | 0.00 | 0.00 | 0.00 | 92 | 1014.3 |
| 20260506131445 | 50 | 14 | 4.0 | 6.0 | 0.00 | 0.00 | 0.00 | 91 | 1013.7 |
| 20260506130942 | 50 | 50 | 5.0 | 7.0 | 0.00 | 0.00 | 0.00 | 91 | 1013.5 |
| 20260506130438 | 50 | 349 | 7.0 | 9.0 | 0.00 | 0.00 | 0.00 | 91 | 1013.5 |
| 20260506125936 | 50 | 32 | 9.0 | 10.0 | 0.00 | 0.00 | 0.00 | 91 | 1013.4 |
| 20260506125434 | 50 | 1 | 7.0 | 8.0 | 0.00 | 0.00 | 0.00 | 91 | 1013.5 |
| 20260506124932 | 50 | 348 | 6.0 | 7.0 | 0.00 | 0.00 | 0.00 | 91 | 1013.4 |
| 20260506124429 | 49 | 24 | 6.0 | 8.0 | 0.00 | 0.00 | 0.00 | 91 | 1013.2 |
| 20260506123927 | 49 | 359 | 5.0 | 6.0 | 0.00 | 0.00 | 0.00 | 92 | 1013.0 |
| 20260506123425 | 49 | 34 | 5.0 | 6.0 | 0.00 | 0.00 | 0.00 | 92 | 1013.0 |
| 20260506122922 | 49 | 31 | 7.0 | 9.0 | 0.00 | 0.00 | 0.00 | 92 | 1012.6 |
| 20260506122419 | 49 | 35 | 6.0 | 7.0 | 0.00 | 0.00 | 0.00 | 91 | 1012.9 |
| 20260506121917 | 50 | 12 | 8.0 | 9.0 | 0.00 | 0.00 | 0.00 | 91 | 1013.0 |
| 20260506121414 | 50 | 21 | 8.0 | 10.0 | 0.00 | 0.00 | 0.00 | 91 | 1012.7 |
| 20260506120911 | 50 | 352 | 9.0 | 10.0 | 0.00 | 0.00 | 0.00 | 90 | 1013.1 |
| 20260506120408 | 50 | 21 | 8.0 | 9.0 | 0.00 | 0.00 | 0.00 | 90 | 1012.9 |
| 20260506115906 | 50 | 4 | 7.0 | 11.0 | 0.00 | 0.00 | 0.00 | 91 | 1012.8 |
| 20260506115404 | 50 | 341 | 9.0 | 14.0 | 0.00 | 0.00 | 0.00 | 90 | 1012.5 |
| 20260506114902 | 50 | 7 | 4.0 | 6.0 | 0.00 | 0.00 | 0.00 | 91 | 1012.8 |
| 20260506114359 | 50 | 344 | 7.0 | 8.0 | 0.00 | 0.00 | 0.00 | 90 | 1012.9 |
| 20260506113858 | 50 | 346 | 7.0 | 11.0 | 0.00 | 0.00 | 0.00 | 90 | 1012.8 |
| 20260506113354 | 50 | 26 | 5.0 | 7.0 | 0.00 | 0.00 | 0.00 | 90 | 1012.7 |
| 20260506112851 | 50 | 335 | 6.0 | 7.0 | 0.00 | 0.00 | 0.00 | 90 | 1012.5 |
| 20260506112348 | 50 | 9 | 4.0 | 6.0 | 0.00 | 0.00 | 0.00 | 90 | 1012.3 |
| 20260506111845 | 50 | 10 | 7.0 | 9.0 | 0.00 | 0.00 | 0.00 | 90 | 1012.3 |
| 20260506111344 | 50 | 353 | 11.0 | 13.0 | 0.00 | 0.00 | 0.00 | 90 | 1012.2 |
| 20260506110841 | 50 | 5 | 7.0 | 9.0 | 0.00 | 0.00 | 0.00 | 89 | 1012.1 |
| 20260506110338 | 50 | 353 | 6.0 | 8.0 | 0.00 | 0.00 | 0.00 | 90 | 1012.0 |
| 20260506105835 | 50 | 34 | 7.0 | 8.0 | 0.00 | 0.00 | 0.00 | 89 | 1011.9 |
| 20260506105331 | 51 | 349 | 7.0 | 8.0 | 0.00 | 0.00 | 0.00 | 89 | 1011.7 |
| 20260506104829 | 51 | 14 | 8.0 | 10.0 | 0.00 | 0.00 | 0.00 | 89 | 1011.5 |
| 20260506104326 | 51 | 355 | 11.0 | 16.0 | 0.00 | 0.00 | 0.00 | 89 | 1011.5 |
| 20260506103824 | 51 | 10 | 9.0 | 11.0 | 0.00 | 0.00 | 0.00 | 89 | 1011.6 |
| 20260506103321 | 51 | 357 | 6.0 | 8.0 | 0.00 | 0.00 | 0.00 | 88 | 1011.7 |
| 20260506102819 | 52 | 14 | 5.0 | 7.0 | 0.00 | 0.00 | 0.00 | 88 | 1011.8 |
| 20260506102316 | 52 | 2 | 9.0 | 11.0 | 0.00 | 0.00 | 0.00 | 87 | 1011.6 |
| 20260506101813 | 52 | 3 | 7.0 | 9.0 | 0.00 | 0.00 | 0.00 | 87 | 1011.5 |
| 20260506101309 | 53 | 336 | 10.0 | 15.0 | 0.00 | 0.00 | 0.00 | 86 | 1011.3 |
| 20260506100807 | 53 | 11 | 7.0 | 9.0 | 0.00 | 0.00 | 0.00 | 86 | 1011.1 |
| 20260506100305 | 53 | 11 | 8.0 | 10.0 | 0.00 | 0.00 | 0.00 | 86 | 1011.0 |
| 20260506095804 | 53 | 35 | 5.0 | 6.0 | 0.00 | 0.00 | 0.00 | 86 | 1010.8 |
| 20260506095300 | 53 | 36 | 6.0 | 7.0 | 0.00 | 0.00 | 0.00 | 86 | 1011.2 |
| 20260506094757 | 54 | 12 | 7.0 | 8.0 | 0.00 | 0.00 | 0.00 | 86 | 1010.9 |
| 20260506094255 | 54 | 7 | 8.0 | 9.0 | 0.00 | 0.00 | 0.00 | 85 | 1010.9 |
| 20260506093753 | 54 | 336 | 7.0 | 8.0 | 0.00 | 0.00 | 0.00 | 85 | 1010.6 |
| 20260506093250 | 54 | 30 | 3.0 | 5.0 | 0.00 | 0.00 | 0.00 | 85 | 1010.5 |
| 20260506092748 | 54 | 7 | 5.0 | 6.0 | 0.00 | 0.00 | 0.00 | 85 | 1010.8 |
| 20260506092246 | 55 | 338 | 3.0 | 5.0 | 0.00 | 0.00 | 0.00 | 84 | 1010.4 |
| 20260506091743 | 55 | 29 | 5.0 | 6.0 | 0.00 | 0.00 | 0.00 | 85 | 1010.5 |
| 20260506091240 | 55 | 337 | 5.0 | 6.0 | 0.00 | 0.00 | 0.00 | 85 | 1010.7 |
| 20260506090738 | 55 | 3 | 2.0 | 2.0 | 0.00 | 0.00 | 0.00 | 85 | 1010.4 |
| 20260506090235 | 55 | 328 | 6.0 | 7.0 | 0.00 | 0.00 | 0.00 | 85 | 1010.5 |
| 20260506085731 | 55 | 349 | 5.0 | 6.0 | 0.00 | 0.00 | 0.00 | 85 | 1010.5 |
| 20260506085228 | 55 | 342 | 4.0 | 5.0 | 0.00 | 0.00 | 0.00 | 85 | 1010.4 |
| 20260506084724 | 55 | 3 | 5.0 | 6.0 | 0.00 | 0.00 | 0.00 | 85 | 1010.5 |
| 20260506084220 | 55 | 6 | 4.0 | 5.0 | 0.00 | 0.00 | 0.00 | 85 | 1010.4 |
| 20260506083718 | 55 | 21 | 4.0 | 7.0 | 0.00 | 0.00 | 0.00 | 84 | 1010.4 |
| 20260506083216 | 55 | 355 | 4.0 | 6.0 | 0.00 | 0.00 | 0.00 | 84 | 1010.4 |
| 20260506082713 | 55 | 33 | 6.0 | 7.0 | 0.00 | 0.00 | 0.00 | 84 | 1010.5 |
| 20260506082208 | 55 | 355 | 5.0 | 6.0 | 0.00 | 0.00 | 0.00 | 85 | 1010.1 |
| 20260506081706 | 55 | 26 | 4.0 | 5.0 | 0.00 | 0.00 | 0.00 | 85 | 1010.1 |
| 20260506081158 | 55 | 7 | 5.0 | 7.0 | 0.00 | 0.00 | 0.00 | 85 | 1010.0 |
| 20260506080656 | 55 | 3 | 8.0 | 10.0 | 0.00 | 0.00 | 0.00 | 85 | 1010.1 |
| 20260506080152 | 55 | 41 | 4.0 | 6.0 | 0.00 | 0.00 | 0.00 | 85 | 1010.0 |
| 20260506073136 | 56 | 9 | 3.0 | 5.0 | 0.00 | 0.00 | 0.00 | 87 | 1010.2 |
| 20260506072633 | 56 | 355 | 4.0 | 5.0 | 0.00 | 0.00 | 0.00 | 86 | 1010.5 |
| 20260506072131 | 56 | 337 | 3.0 | 5.0 | 0.00 | 0.00 | 0.00 | 87 | 1010.5 |
| 20260506071628 | 56 | 330 | 4.0 | 5.0 | 0.00 | 0.00 | 0.00 | 87 | 1010.4 |
| 20260506071126 | 56 | 19 | 3.0 | 5.0 | 0.00 | 0.00 | 0.00 | 87 | 1010.0 |
| 20260506070622 | 56 | 355 | 4.0 | 5.0 | 0.00 | 0.00 | 0.00 | 87 | 1010.2 |
| 20260506070119 | 56 | 11 | 4.0 | 5.0 | 0.00 | 0.00 | 0.00 | 88 | 1010.1 |
| 20260506062057 | 57 | 58 | 3.0 | 5.0 | 0.00 | 0.00 | 0.00 | 86 | 1009.4 |
| 20260506061552 | 57 | 74 | 4.0 | 7.0 | 0.00 | 0.00 | 0.00 | 86 | 1009.4 |
| 20260506061050 | 57 | 20 | 4.0 | 5.0 | 0.00 | 0.00 | 0.00 | 86 | 1009.2 |
| 20260506060549 | 57 | 40 | 4.0 | 5.0 | 0.00 | 0.00 | 0.00 | 86 | 1009.9 |
| 20260506051017 | 58 | 29 | 7.0 | 8.0 | 0.00 | 0.00 | 0.00 | 84 | 1009.7 |
| 20260506050515 | 58 | 21 | 5.0 | 6.0 | 0.00 | 0.00 | 0.00 | 84 | 1010.1 |
| 20260506045005 | 58 | 27 | 7.0 | 8.0 | 0.00 | 0.00 | 0.00 | 83 | 1009.9 |
| 20260506044503 | 58 | 25 | 3.0 | 5.0 | 0.00 | 0.00 | 0.00 | 83 | 1009.9 |
| 20260506043959 | 58 | 333 | 9.0 | 10.0 | 0.00 | 0.00 | 0.00 | 83 | 1010.0 |
| 20260506043456 | 59 | 315 | 8.0 | 10.0 | 0.00 | 0.00 | 0.00 | 83 | 1009.8 |
| 20260506042954 | 59 | 0 | 7.0 | 8.0 | 0.00 | 0.00 | 0.00 | 83 | 1010.0 |
| 20260506042449 | 59 | 29 | 5.0 | 5.0 | 0.00 | 0.00 | 0.00 | 83 | 1009.8 |
| 20260506041946 | 59 | 357 | 3.0 | 3.0 | 0.00 | 0.00 | 0.00 | 83 | 1009.7 |
| 20260506041444 | 59 | 348 | 5.0 | 6.0 | 0.00 | 0.00 | 0.00 | 83 | 1009.4 |
| 20260506040941 | 59 | 351 | 5.0 | 7.0 | 0.00 | 0.00 | 0.00 | 83 | 1009.8 |
| 20260506040438 | 59 | 352 | 7.0 | 9.0 | 0.00 | 0.00 | 0.00 | 83 | 1009.9 |
| 20260506035934 | 59 | 357 | 4.0 | 5.0 | 0.00 | 0.00 | 0.00 | 82 | 1009.9 |
| 20260506035432 | 59 | 328 | 7.0 | 9.0 | 0.00 | 0.00 | 0.00 | 82 | 1009.7 |
| 20260506034928 | 60 | 349 | 7.0 | 9.0 | 0.00 | 0.00 | 0.00 | 81 | 1009.9 |
| 20260506034426 | 60 | 341 | 6.0 | 7.0 | 0.00 | 0.00 | 0.00 | 81 | 1009.9 |
| 20260506033923 | 60 | 359 | 6.0 | 7.0 | 0.00 | 0.00 | 0.00 | 80 | 1009.9 |
| 20260506033420 | 60 | 344 | 5.0 | 8.0 | 0.00 | 0.00 | 0.00 | 80 | 1009.7 |
| 20260506032917 | 61 | 4 | 5.0 | 7.0 | 0.00 | 0.00 | 0.00 | 80 | 1009.8 |
| 20260506032414 | 61 | 346 | 6.0 | 8.0 | 0.00 | 0.00 | 0.00 | 80 | 1009.3 |
| 20260506031910 | 61 | 15 | 6.0 | 8.0 | 0.00 | 0.00 | 0.00 | 80 | 1009.5 |
| 20260506031408 | 61 | 37 | 7.0 | 8.0 | 0.00 | 0.00 | 0.00 | 80 | 1009.0 |
| 20260506030905 | 62 | 22 | 6.0 | 8.0 | 0.00 | 0.00 | 0.00 | 80 | 1008.9 |
| 20260506030403 | 62 | 16 | 5.0 | 7.0 | 0.00 | 0.00 | 0.00 | 80 | 1008.5 |
| 20260506025900 | 62 | 3 | 7.0 | 8.0 | 0.00 | 0.00 | 0.00 | 79 | 1008.7 |
| 20260506025356 | 62 | 11 | 7.0 | 9.0 | 0.00 | 0.00 | 0.00 | 79 | 1008.7 |
| 20260506024854 | 62 | 37 | 6.0 | 8.0 | 0.00 | 0.00 | 0.00 | 79 | 1008.7 |
| 20260506024351 | 62 | 339 | 6.0 | 7.0 | 0.00 | 0.00 | 0.00 | 79 | 1008.6 |
| 20260506023846 | 63 | 8 | 6.0 | 7.0 | 0.00 | 0.00 | 0.00 | 79 | 1008.6 |
| 20260506023344 | 63 | 13 | 9.0 | 10.0 | 0.00 | 0.00 | 0.00 | 79 | 1008.4 |
| 20260506022840 | 63 | 12 | 5.0 | 8.0 | 0.00 | 0.00 | 0.00 | 80 | 1008.2 |
| 20260506022338 | 63 | 9 | 5.0 | 8.0 | 0.00 | 0.00 | 0.00 | 80 | 1007.5 |
| 20260506021836 | 63 | 338 | 8.0 | 10.0 | 0.00 | 0.00 | 0.00 | 79 | 1007.9 |
| 20260506021332 | 64 | 6 | 6.0 | 8.0 | 0.00 | 0.00 | 0.00 | 79 | 1007.8 |
| 20260506020829 | 64 | 12 | 6.0 | 7.0 | 0.00 | 0.00 | 0.00 | 78 | 1007.7 |
| 20260506020327 | 64 | 346 | 7.0 | 9.0 | 0.00 | 0.00 | 0.00 | 78 | 1007.7 |
| 20260506015824 | 64 | 39 | 5.0 | 6.0 | 0.00 | 0.00 | 0.00 | 78 | 1007.3 |
| 20260506015322 | 64 | 38 | 5.0 | 6.0 | 0.00 | 0.00 | 0.00 | 78 | 1007.5 |
| 20260506014818 | 64 | 353 | 5.0 | 6.0 | 0.00 | 0.00 | 0.00 | 77 | 1007.5 |
| 20260506014315 | 65 | 357 | 3.0 | 6.0 | 0.00 | 0.00 | 0.00 | 77 | 1007.6 |
| 20260506013812 | 65 | 332 | 5.0 | 8.0 | 0.00 | 0.00 | 0.00 | 77 | 1007.5 |
| 20260506013309 | 65 | 5 | 4.0 | 5.0 | 0.00 | 0.00 | 0.00 | 76 | 1007.0 |
| 20260506012806 | 65 | 23 | 4.0 | 5.0 | 0.00 | 0.00 | 0.00 | 75 | 1007.0 |
| 20260506012307 | 66 | 3 | 7.0 | 9.0 | 0.00 | 0.00 | 0.00 | 75 | 1006.7 |
| 20260506011800 | 66 | 358 | 4.0 | 5.0 | 0.00 | 0.00 | 0.00 | 75 | 1006.8 |
| 20260506011256 | 66 | 331 | 5.0 | 6.0 | 0.00 | 0.00 | 0.00 | 75 | 1006.8 |
| 20260506010754 | 66 | 3 | 8.0 | 11.0 | 0.00 | 0.00 | 0.00 | 75 | 1006.6 |
| 20260506010252 | 67 | 359 | 9.0 | 11.0 | 0.00 | 0.00 | 0.00 | 75 | 1006.2 |
| 20260506005749 | 67 | 33 | 7.0 | 11.0 | 0.00 | 0.00 | 0.00 | 75 | 1006.2 |
| 20260506005245 | 67 | 32 | 6.0 | 7.0 | 0.00 | 0.00 | 0.00 | 75 | 1005.8 |
| 20260506004741 | 68 | 358 | 5.0 | 8.0 | 0.00 | 0.00 | 0.00 | 74 | 1006.0 |
| 20260506004239 | 68 | 42 | 6.0 | 8.0 | 0.00 | 0.00 | 0.00 | 74 | 1005.8 |
| 20260506003735 | 69 | 355 | 6.0 | 7.0 | 0.00 | 0.00 | 0.00 | 72 | 1005.5 |
| 20260506003231 | 69 | 350 | 9.0 | 10.0 | 0.00 | 0.00 | 0.00 | 72 | 1005.7 |
| 20260506002727 | 69 | 349 | 7.0 | 9.0 | 0.00 | 0.00 | 0.00 | 72 | 1006.0 |
| 20260506002224 | 69 | 11 | 8.0 | 9.0 | 0.00 | 0.00 | 0.00 | 71 | 1005.9 |
| 20260506001720 | 70 | 16 | 5.0 | 5.0 | 0.00 | 0.00 | 0.00 | 71 | 1005.7 |
| 20260506001217 | 70 | 24 | 6.0 | 7.0 | 0.00 | 0.00 | 0.00 | 70 | 1005.5 |
| 20260506000714 | 70 | 356 | 5.0 | 7.0 | 0.00 | 0.00 | 0.00 | 70 | 1005.8 |
| 20260506000212 | 70 | 12 | 5.0 | 7.0 | 0.00 | 0.00 | 0.00 | 70 | 1005.8 |
| 20260505235709 | 70 | 346 | 9.0 | 10.0 | 0.00 | 0.00 | 0.00 | 69 | 1005.9 |
| 20260505235207 | 71 | 18 | 6.0 | 7.0 | 0.00 | 0.00 | 0.00 | 68 | 1005.8 |
| 20260505234703 | 71 | 356 | 7.0 | 9.0 | 0.00 | 0.00 | 0.00 | 67 | 1005.8 |
| 20260505234200 | 71 | 6 | 6.0 | 8.0 | 0.00 | 0.00 | 0.00 | 68 | 1005.5 |
| 20260505233656 | 72 | 1 | 5.0 | 6.0 | 0.00 | 0.00 | 0.00 | 69 | 1005.7 |
| 20260505233155 | 72 | 5 | 7.0 | 8.0 | 0.00 | 0.00 | 0.00 | 68 | 1005.4 |
| 20260505232652 | 73 | 0 | 7.0 | 9.0 | 0.00 | 0.00 | 0.00 | 68 | 1005.6 |
| 20260505232149 | 73 | 13 | 8.0 | 10.0 | 0.00 | 0.00 | 0.00 | 68 | 1005.4 |
| 20260505231645 | 73 | 351 | 8.0 | 10.0 | 0.00 | 0.00 | 0.00 | 67 | 1005.5 |
| 20260505231144 | 74 | 9 | 11.0 | 13.0 | 0.00 | 0.00 | 0.00 | 66 | 1005.4 |
| 20260505230637 | 75 | 342 | 8.0 | 9.0 | 0.00 | 0.00 | 0.00 | 67 | 1005.3 |
| 20260505230133 | 75 | 13 | 5.0 | 7.0 | 0.00 | 0.00 | 0.00 | 66 | 1005.4 |
| 20260505225629 | 75 | 358 | 5.0 | 6.0 | 0.00 | 0.00 | 0.00 | 65 | 1005.3 |
| 20260505225126 | 76 | 31 | 8.0 | 10.0 | 0.00 | 0.00 | 0.00 | 64 | 1005.4 |
| 20260505224622 | 77 | 21 | 7.0 | 9.0 | 0.00 | 0.00 | 0.00 | 63 | 1005.0 |
| 20260505224120 | 78 | 14 | 7.0 | 13.0 | 0.00 | 0.00 | 0.00 | 61 | 1005.1 |
| 20260505223617 | 78 | 29 | 7.0 | 8.0 | 0.00 | 0.00 | 0.00 | 60 | 1005.2 |
| 20260505223113 | 78 | 25 | 7.0 | 8.0 | 0.00 | 0.00 | 0.00 | 62 | 1005.3 |
| 20260505222610 | 79 | 313 | 5.0 | 7.0 | 0.00 | 0.00 | 0.00 | 63 | 1004.8 |
| 20260505222106 | 80 | 349 | 6.0 | 8.0 | 0.00 | 0.00 | 0.00 | 62 | 1005.0 |
| 20260505221603 | 81 | 15 | 8.0 | 9.0 | 0.00 | 0.00 | 0.00 | 60 | 1005.0 |
| 20260505221059 | 81 | 339 | 6.0 | 7.0 | 0.00 | 0.00 | 0.00 | 61 | 1004.9 |
| 20260505220556 | 82 | 15 | 6.0 | 7.0 | 0.00 | 0.00 | 0.00 | 60 | 1004.8 |
| 20260505220054 | 82 | 331 | 5.0 | 7.0 | 0.00 | 0.00 | 0.00 | 60 | 1004.6 |
| 20260505215552 | 83 | 15 | 7.0 | 8.0 | 0.00 | 0.00 | 0.00 | 56 | 1004.9 |
| 20260505215050 | 84 | 354 | 6.0 | 8.0 | 0.00 | 0.00 | 0.00 | 56 | 1004.8 |
| 20260505214548 | 84 | 6 | 9.0 | 10.0 | 0.00 | 0.00 | 0.00 | 54 | 1004.7 |
| 20260505214044 | 84 | 10 | 5.0 | 7.0 | 0.00 | 0.00 | 0.00 | 53 | 1004.7 |
| 20260505213542 | 85 | 43 | 5.0 | 6.0 | 0.00 | 0.00 | 0.00 | 49 | 1004.6 |
| 20260505213038 | 85 | 27 | 4.0 | 5.0 | 0.00 | 0.00 | 0.00 | 48 | 1004.8 |
| 20260505212535 | 86 | 39 | 5.0 | 7.0 | 0.00 | 0.00 | 0.00 | 45 | 1004.8 |
| 20260505212032 | 86 | 352 | 5.0 | 6.0 | 0.00 | 0.00 | 0.00 | 46 | 1004.8 |
| 20260505211529 | 86 | 0 | 4.0 | 6.0 | 0.00 | 0.00 | 0.00 | 45 | 1004.8 |
| 20260505211026 | 86 | 39 | 4.0 | 6.0 | 0.00 | 0.00 | 0.00 | 49 | 1004.9 |
| 20260505210522 | 86 | 333 | 5.0 | 10.0 | 0.00 | 0.00 | 0.00 | 47 | 1004.8 |
| 20260505210020 | 86 | 48 | 5.0 | 8.0 | 0.00 | 0.00 | 0.00 | 48 | 1005.0 |